SCP
0 0 0 0 0 0 0 0 0 0 0 0 0 0 0 0 0 0 0 0 0 0 0 0 0 0 0 0 0 0 0 0 0 0 0 0 0 0 0 0 0 0 0
0 0 0 0 0 0 0 0 0 0 0 0 0 0 0 0 0 0 0 0 0 0 0 0 0 0 0 0 0 0 0 0 0 0 0 0 0 0 0 0 0 0 0
0 0 0 0 0 0 0 0 0 0 0 0 0 0 0 0 0 0 0 0 0 0 0 0 0 0 0 0 0 0 0 0 0 0 0 0 0 0 0 0 0 0 0
0 0 0 0 0 0 0 0 0 0 0 0 0 0 0 0 0 0 0 0 0 0 0 0 0 0 0 0 0 0 0 0 0 0 0 0 0 0 0 0 0 0 0
0 0 0 0 0 0 0 0 0 0 0 0 0 0 0 0 0 0 0 0 0 0 0 0 0 0 0 0 0 0 0 0 0 0 0 0 0 0 0 0 0 0 0
0 0 0 0 0 0 0 0 0 0 0 0 0 0 0 0 0 0 0 0 0 0 0 0 0 0 0 0 0 0 0 0 0 0 0 0 0 0 0 0 0 0 0
0 1 0 0 0 0 0 0 0 0 0 0 0 0 0 0 0 0 0 0 0 0 0 0 0 0 0 0 0 0 0 0 0 0 0 0 0 0 0 0 0 1 1
0 0 0 0 0 0 0 0 0 0 0 0 0 0 0 0 0 0 0 0 0 0 0 0 0 0 0 0 0 0 0 0 0 0 0 0 0 0 1 1 1 1 1
0 0 0 0 0 0 0 0 0 0 0 0 0 0 0 0 0 0 0 0 0 0 0 0 0 0 0 0 0 0 0 0 0 0 0 0 0 0 0 1 1 1 1
0 0 0 0 0 0 0 0 0 0 0 0 0 0 0 0 0 0 0 0 0 0 0 0 0 0 0 0 0 0 0 0 0 0 0 0 0 0 0 0 0 0 1
0 0 0 0 0 0 0 0 0 0 0 0 0 0 0 0 0 0 0 0 0 0 0 0 0 0 0 0 0 0 0 0 0 0 0 0 0 0 0 0 0 0 0
0 0 0 0 0 0 0 0 0 0 0 0 0 0 0 0 0 0 0 0 0 0 0 0 0 0 0 0 0 0 0 0 0 0 0 0 0 0 0 0 0 0 0
0 0 0 0 0 0 0 0 0 0 0 0 0 0 0 0 0 0 0 0 0 0 0 0 0 0 0 0 0 0 0 0 0 0 0 0 0 0 0 0 0 0 0
0 0 0 0 0 0 0 0 0 0 0 0 0 0 0 0 0 0 0 0 0 0 0 0 0 0 0 0 0 0 0 0 0 0 0 0 0 0 0 0 0 0 0
0 0 0 0 0 0 0 0 0 0 0 0 0 0 0 0 0 0 0 0 0 0 0 0 0 0 0 0 0 0 0 0 0 0 0 0 0 0 0 0 0 0 0
0 0 0 0 0 0 0 0 0 0 0 0 0 0 0 0 0 0 0 0 0 0 0 0 0 0 0 0 0 0 0 0 0 0 0 0 0 0 0 0 0 0 0
0 0 0 0 0 0 0 0 0 0 0 0 0 0 0 0 0 0 0 0 0 0 0 0 0 0 0 0 0 0 0 0 0 0 0 0 0 0 0 0 0 0 0
0 0 0 0 0 0 0 0 0 0 0 0 0 0 0 0 0 0 0 0 0 0 0 0 0 0 0 0 0 0 0 0 0 0 0 0 0 0 0 0 0 0 0
0 0 0 0 0 0 0 0 0 0 0 0 0 0 0 0 0 0 0 0 0 0 0 0 0 0 0 0 0 0 0 0 0 0 0 0 0 0 0 0 0 0 0
0 0 0 0 0 0 0 0 0 0 0 0 0 0 0 0 0 0 0 0 0 0 0 0 0 0 0 0 0 0 0 0 0 0 0 0 0 0 0 0 0 0 0
0 0 0 0 0 0 0 0 0 0 0 0 0 0 0 0 0 0 0 0 0 0 0 0 0 0 0 0 0 0 0 0 0 0 0 0 0 0 0 0 0 0 0
0 0 0 0 0 0 0 0 0 0 0 0 0 0 0 0 0 0 0 0 0 0 0 0 0 0 0 0 0 0 0 0 0 0 0 0 0 0 0 0 0 0 0
0 0 0 -0 -0 0 0 0 0 0 0 0 0 0 0 0 0 0 0 0 0 0 0 0 0 0 0 0 0 0 0 0 0 0 0 0 0 0 0 0 0 0 0
0 0 0 0 0 0 0 0 0 0 0 0 0 0 0 0 0 0 0 0 0 0 0 0 0 0 0 0 0 0 0 0 0 0 0 0 0 0 0 0 0 0 0
0 0 0 0 0 0 0 0 0 0 0 0 0 0 0 0 0 0 0 0 0 0 0 0 0 0 0 0 0 0 0 0 0 0 0 0 0 0 0 0 0 0 0
0 0 0 0 0 0 0 0 0 0 0 0 0 0 0 0 0 0 0 0 0 0 0 0 0 0 0 0 0 0 0 0 0 0 0 0 0 0 0 0 0 0 0
Wind_Speed_500mb
8 7 7 7 8 8 9 9 10 11 13 13 14 17 18 18 19 19 19 20 22 23 21 21 18 13 10 11 11 14 16 15 11 9 12 15 15 16 15 14 15 13 12
12 10 9 9 10 8 6 7 9 12 13 15 19 19 19 19 18 21 25 28 30 30 27 23 23 20 16 18 17 16 14 18 20 16 15 13 16 18 17 16 14 12 12
8 10 10 12 11 10 10 11 12 14 18 20 18 18 17 18 20 23 29 32 32 30 26 23 22 22 19 18 22 23 22 24 24 24 22 17 18 20 19 20 19 17 15
7 7 8 9 9 8 8 9 11 18 22 20 16 14 16 19 23 28 31 30 25 22 20 16 15 16 18 18 17 19 23 24 26 28 20 23 24 21 20 22 22 22 18
3 4 4 6 8 8 7 8 14 22 24 18 15 16 15 18 23 29 31 26 22 23 24 25 22 15 14 14 15 14 15 18 23 25 23 23 28 27 26 23 20 23 25
1 4 4 6 7 8 7 9 16 23 25 22 17 14 15 18 22 25 28 27 22 25 27 27 24 20 17 15 15 15 14 14 14 13 22 26 30 32 31 30 27 22 27
7 10 10 10 10 9 9 9 18 24 26 26 17 10 11 16 19 20 24 25 23 21 23 26 25 23 23 21 18 16 15 15 9 11 13 18 23 30 33 33 31 30 25
10 12 14 14 10 11 10 12 17 20 28 30 20 12 10 14 18 20 17 20 22 25 25 29 29 28 25 23 19 18 14 13 12 12 14 10 14 18 23 30 28 27 27
13 16 17 14 13 11 9 12 14 23 30 31 22 15 13 15 19 21 21 23 29 30 31 32 30 27 26 25 20 19 19 17 8 9 8 6 10 10 16 20 26 28 29
15 16 13 11 10 10 8 10 14 23 31 29 24 17 15 18 21 22 22 27 33 35 33 29 28 27 26 25 21 20 24 21 12 9 6 7 11 10 12 16 19 22 28
18 16 13 8 10 11 6 11 15 23 30 29 25 22 19 21 20 20 24 28 33 30 26 27 29 30 28 25 19 18 22 25 17 19 10 12 13 15 16 17 18 21 27
19 17 14 7 11 14 10 11 14 21 27 28 26 28 25 24 21 21 25 29 29 25 28 30 34 30 27 22 18 19 20 22 17 21 14 22 21 23 26 29 31 32 33
17 18 17 8 6 13 12 11 15 20 25 27 26 31 30 28 24 24 28 31 29 28 31 31 31 26 23 19 17 18 20 20 16 12 11 12 11 11 13 13 16 21 28
17 18 16 10 4 11 13 10 13 19 22 23 25 31 30 28 27 26 28 30 33 35 34 35 33 27 19 16 16 17 17 18 16 14 10 7 9 7 10 18 23 25 26
16 16 16 14 9 7 9 10 13 17 17 19 24 31 33 31 31 31 31 32 32 35 40 38 33 27 19 15 16 17 18 18 18 16 11 13 14 12 17 25 30 30 28
12 15 16 15 11 10 9 10 13 9 10 12 19 29 34 31 31 30 31 32 32 36 38 40 38 33 25 15 12 15 15 14 15 19 18 16 17 18 24 29 29 29 27
10 15 16 14 12 8 7 7 8 4 7 10 17 25 31 30 32 34 33 32 35 36 38 38 34 32 30 20 12 9 10 8 13 18 18 17 18 24 30 30 28 28 27
13 13 15 14 13 9 7 8 5 3 4 8 14 20 27 28 29 34 38 38 35 36 38 39 38 34 29 20 8 2 9 11 12 13 15 18 23 28 30 32 30 29 28
19 14 14 15 15 12 10 9 10 10 9 10 14 18 23 25 26 31 36 40 37 35 37 39 37 36 30 18 8 3 8 10 11 12 16 21 24 29 30 28 28 27 27
25 16 13 16 18 16 14 13 16 17 14 13 13 17 21 25 25 28 33 38 36 32 32 35 36 33 30 14 2 2 5 8 10 12 16 20 25 28 32 31 30 24 26
34 19 18 20 24 20 18 17 19 19 17 17 18 20 22 24 25 26 30 37 36 31 30 33 36 33 29 23 10 16 18 19 16 16 19 18 22 29 32 31 27 26 24
42 24 15 16 25 22 21 20 20 19 20 21 23 23 24 24 25 25 25 31 34 29 28 29 29 30 28 31 27 14 10 9 10 26 24 27 31 36 36 31 28 26 25
45 24 10 20 27 24 22 22 22 22 24 23 26 26 25 26 26 25 23 25 30 30 26 27 26 25 25 26 27 18 13 13 30 12 20 21 31 33 34 33 28 25 25
52 39 15 32 32 27 20 19 20 21 23 26 29 25 25 26 23 23 22 23 26 27 25 22 23 25 25 19 19 23 21 20 15 20 21 25 28 28 29 30 28 25 25
53 54 38 28 34 27 16 16 17 18 22 23 24 25 24 24 24 23 22 23 24 24 24 24 19 19 22 24 19 20 22 19 24 22 39 36 34 28 26 25 27 23 24
33 46 40 34 37 27 12 11 13 14 18 21 21 23 23 24 26 23 20 21 23 24 25 24 23 21 25 28 29 30 28 25 26 29 36 44 47 39 34 23 28 29 32
Wind_Direction_500mb
86 79 63 45 39 28 15 2 357 354 347 338 334 331 328 327 323 322 323 323 319 316 314 312 303 290 273 276 270 272 258 245 234 221 211 219 219 225 233 240 251 259 243
85 72 56 41 30 20 5 354 357 357 357 345 333 328 324 323 325 322 320 317 313 308 302 296 293 299 282 260 253 249 252 255 242 234 230 229 228 223 226 229 229 239 236
71 68 52 32 13 4 358 5 13 4 352 337 328 324 325 331 331 330 328 323 317 311 300 289 285 288 290 282 261 254 253 256 251 241 233 229 231 227 226 234 232 218 223
89 66 37 31 5 1 355 8 5 355 343 332 322 326 332 326 325 328 329 332 343 357 351 327 307 301 293 292 298 284 263 253 252 249 247 239 233 238 237 232 236 233 240
130 17 349 358 3 351 353 353 357 355 2 347 327 328 327 322 328 329 330 334 346 1 6 5 358 334 328 314 295 291 284 267 253 251 251 247 240 239 241 241 243 238 247
201 296 316 330 341 340 342 336 344 358 7 1 347 338 329 324 328 330 330 334 353 1 2 1 3 356 337 317 307 298 294 281 280 268 259 254 246 241 239 242 245 249 245
292 302 302 328 322 319 313 322 349 359 359 355 344 328 313 307 319 328 325 337 350 360 353 356 349 338 337 333 326 312 295 290 281 279 280 265 258 249 245 241 244 248 253
294 306 314 308 292 298 304 324 342 353 357 1 4 9 340 333 331 339 330 331 336 346 336 334 328 328 324 320 324 327 308 293 311 293 302 300 270 246 244 240 239 238 236
300 305 305 288 278 266 283 306 336 357 360 6 9 5 348 335 331 335 334 330 330 328 326 326 327 324 318 312 305 303 304 294 311 319 323 325 289 260 245 235 229 228 226
303 309 304 289 249 251 279 311 340 353 3 11 16 3 340 332 331 330 328 329 329 326 326 328 329 326 323 310 301 289 289 295 300 299 300 291 283 275 251 240 238 239 242
310 322 328 313 259 238 249 312 337 353 6 15 15 7 354 347 338 335 335 334 331 331 332 329 325 318 315 315 296 289 285 289 296 279 271 263 274 279 276 269 267 262 257
318 329 338 323 233 229 250 305 326 352 7 12 13 8 6 6 358 347 342 341 339 336 330 326 324 317 313 300 286 274 275 288 296 284 278 270 272 280 286 285 282 280 272
321 333 339 341 246 234 266 297 327 352 5 9 11 7 9 6 360 352 348 346 345 338 332 334 334 327 314 294 272 269 274 280 288 283 277 283 297 310 308 303 302 289 277
333 334 336 341 307 255 261 282 330 350 0 7 10 13 11 8 2 353 351 351 350 345 344 340 337 332 318 297 267 269 274 279 282 272 255 276 299 296 317 321 316 304 286
340 339 343 335 305 270 272 299 334 346 359 6 11 15 15 13 9 2 359 357 358 354 347 347 347 341 326 305 277 269 267 279 272 254 247 257 261 282 309 318 319 312 305
335 345 342 330 311 274 279 299 324 346 2 11 8 13 13 17 17 13 7 3 360 357 358 354 351 349 341 323 301 268 272 282 250 241 242 258 272 293 304 309 311 314 308
300 341 340 335 320 293 269 288 315 351 2 5 6 7 10 15 17 14 12 6 0 2 3 1 357 354 349 336 314 276 260 252 230 226 234 246 270 289 297 300 302 304 304
276 322 338 342 331 311 285 303 307 320 353 342 347 352 2 9 12 12 10 7 1 1 5 2 1 4 360 355 345 219 192 191 206 224 249 270 286 294 298 300 300 298 296
261 290 327 346 340 321 302 287 284 287 302 326 327 327 343 357 2 6 7 5 0 2 5 8 6 6 9 10 31 143 183 200 220 252 277 291 299 305 305 305 303 295 293
253 270 314 339 343 319 303 283 284 288 292 302 310 305 321 341 349 355 360 3 360 0 6 11 12 10 12 2 17 195 227 241 255 279 290 300 309 313 310 307 308 295 285
248 256 310 333 332 324 305 295 295 289 293 292 297 301 304 323 334 342 352 358 358 359 2 4 6 15 17 14 336 283 277 278 274 300 295 305 313 314 312 311 310 305 289
247 242 296 320 313 320 303 296 294 301 299 286 293 300 301 311 320 329 338 351 356 359 358 357 4 12 13 17 12 352 331 317 297 292 275 287 305 307 306 306 301 295 293
236 221 273 290 284 299 303 307 306 311 304 299 303 296 302 303 312 317 321 339 350 359 357 358 359 2 7 11 21 27 347 340 333 338 314 308 316 312 300 303 297 292 282
220 211 179 229 261 266 293 310 303 311 307 299 303 300 297 304 313 312 311 320 339 348 354 351 356 2 1 351 357 359 356 343 337 324 323 334 342 337 306 298 297 289 280
226 224 241 229 226 244 270 318 312 317 312 307 307 309 305 309 317 314 319 306 322 330 337 343 335 339 342 348 331 325 323 315 314 302 311 319 322 323 328 300 300 288 286
219 221 227 210 219 234 255 301 326 331 327 319 318 325 315 316 318 318 313 312 310 314 322 324 329 323 319 320 321 319 311 300 303 296 301 309 311 319 312 310 295 286 284
Wind_Speed_850mb
8 7 7 7 8 8 9 9 10 11 13 13 14 17 18 18 19 19 19 20 22 23 21 21 18 13 10 11 11 14 16 15 11 9 12 15 15 16 15 14 15 13 12
12 10 9 9 10 8 6 7 9 12 13 15 19 19 19 19 18 21 25 28 30 30 27 23 23 20 16 18 17 16 14 18 20 16 15 13 16 18 17 16 14 12 12
8 10 10 12 11 10 10 11 12 14 18 20 18 18 17 18 20 23 29 32 32 30 26 23 22 22 19 18 22 23 22 24 24 24 22 17 18 20 19 20 19 17 15
7 7 8 9 9 8 8 9 11 18 22 20 16 14 16 19 23 28 31 30 25 22 20 16 15 16 18 18 17 19 23 24 26 28 20 23 24 21 20 22 22 22 18
3 4 4 6 8 8 7 8 14 22 24 18 15 16 15 18 23 29 31 26 22 23 24 25 22 15 14 14 15 14 15 18 23 25 23 23 28 27 26 23 20 23 25
1 4 4 6 7 8 7 9 16 23 25 22 17 14 15 18 22 25 28 27 22 25 27 27 24 20 17 15 15 15 14 14 14 13 22 26 30 32 31 30 27 22 27
7 10 10 10 10 9 9 9 18 24 26 26 17 10 11 16 19 20 24 25 23 21 23 26 25 23 23 21 18 16 15 15 9 11 13 18 23 30 33 33 31 30 25
10 12 14 14 10 11 10 12 17 20 28 30 20 12 10 14 18 20 17 20 22 25 25 29 29 28 25 23 19 18 14 13 12 12 14 10 14 18 23 30 28 27 27
13 16 17 14 13 11 9 12 14 23 30 31 22 15 13 15 19 21 21 23 29 30 31 32 30 27 26 25 20 19 19 17 8 9 8 6 10 10 16 20 26 28 29
15 16 13 11 10 10 8 10 14 23 31 29 24 17 15 18 21 22 22 27 33 35 33 29 28 27 26 25 21 20 24 21 12 9 6 7 11 10 12 16 19 22 28
18 16 13 8 10 11 6 11 15 23 30 29 25 22 19 21 20 20 24 28 33 30 26 27 29 30 28 25 19 18 22 25 17 19 10 12 13 15 16 17 18 21 27
19 17 14 7 11 14 10 11 14 21 27 28 26 28 25 24 21 21 25 29 29 25 28 30 34 30 27 22 18 19 20 22 17 21 14 22 21 23 26 29 31 32 33
17 18 17 8 6 13 12 11 15 20 25 27 26 31 30 28 24 24 28 31 29 28 31 31 31 26 23 19 17 18 20 20 16 12 11 12 11 11 13 13 16 21 28
17 18 16 10 4 11 13 10 13 19 22 23 25 31 30 28 27 26 28 30 33 35 34 35 33 27 19 16 16 17 17 18 16 14 10 7 9 7 10 18 23 25 26
16 16 16 14 9 7 9 10 13 17 17 19 24 31 33 31 31 31 31 32 32 35 40 38 33 27 19 15 16 17 18 18 18 16 11 13 14 12 17 25 30 30 28
12 15 16 15 11 10 9 10 13 9 10 12 19 29 34 31 31 30 31 32 32 36 38 40 38 33 25 15 12 15 15 14 15 19 18 16 17 18 24 29 29 29 27
10 15 16 14 12 8 7 7 8 4 7 10 17 25 31 30 32 34 33 32 35 36 38 38 34 32 30 20 12 9 10 8 13 18 18 17 18 24 30 30 28 28 27
13 13 15 14 13 9 7 8 5 3 4 8 14 20 27 28 29 34 38 38 35 36 38 39 38 34 29 20 8 2 9 11 12 13 15 18 23 28 30 32 30 29 28
19 14 14 15 15 12 10 9 10 10 9 10 14 18 23 25 26 31 36 40 37 35 37 39 37 36 30 18 8 3 8 10 11 12 16 21 24 29 30 28 28 27 27
25 16 13 16 18 16 14 13 16 17 14 13 13 17 21 25 25 28 33 38 36 32 32 35 36 33 30 14 2 2 5 8 10 12 16 20 25 28 32 31 30 24 26
34 19 18 20 24 20 18 17 19 19 17 17 18 20 22 24 25 26 30 37 36 31 30 33 36 33 29 23 10 16 18 19 16 16 19 18 22 29 32 31 27 26 24
42 24 15 16 25 22 21 20 20 19 20 21 23 23 24 24 25 25 25 31 34 29 28 29 29 30 28 31 27 14 10 9 10 26 24 27 31 36 36 31 28 26 25
45 24 10 20 27 24 22 22 22 22 24 23 26 26 25 26 26 25 23 25 30 30 26 27 26 25 25 26 27 18 13 13 30 12 20 21 31 33 34 33 28 25 25
52 39 15 32 32 27 20 19 20 21 23 26 29 25 25 26 23 23 22 23 26 27 25 22 23 25 25 19 19 23 21 20 15 20 21 25 28 28 29 30 28 25 25
53 54 38 28 34 27 16 16 17 18 22 23 24 25 24 24 24 23 22 23 24 24 24 24 19 19 22 24 19 20 22 19 24 22 39 36 34 28 26 25 27 23 24
33 46 40 34 37 27 12 11 13 14 18 21 21 23 23 24 26 23 20 21 23 24 25 24 23 21 25 28 29 30 28 25 26 29 36 44 47 39 34 23 28 29 32
Wind_Direction_850mb
86 79 63 45 39 28 15 2 357 354 347 338 334 331 328 327 323 322 323 323 319 316 314 312 303 290 273 276 270 272 258 245 234 221 211 219 219 225 233 240 251 259 243
85 72 56 41 30 20 5 354 357 357 357 345 333 328 324 323 325 322 320 317 313 308 302 296 293 299 282 260 253 249 252 255 242 234 230 229 228 223 226 229 229 239 236
71 68 52 32 13 4 358 5 13 4 352 337 328 324 325 331 331 330 328 323 317 311 300 289 285 288 290 282 261 254 253 256 251 241 233 229 231 227 226 234 232 218 223
89 66 37 31 5 1 355 8 5 355 343 332 322 326 332 326 325 328 329 332 343 357 351 327 307 301 293 292 298 284 263 253 252 249 247 239 233 238 237 232 236 233 240
130 17 349 358 3 351 353 353 357 355 2 347 327 328 327 322 328 329 330 334 346 1 6 5 358 334 328 314 295 291 284 267 253 251 251 247 240 239 241 241 243 238 247
201 296 316 330 341 340 342 336 344 358 7 1 347 338 329 324 328 330 330 334 353 1 2 1 3 356 337 317 307 298 294 281 280 268 259 254 246 241 239 242 245 249 245
292 302 302 328 322 319 313 322 349 359 359 355 344 328 313 307 319 328 325 337 350 360 353 356 349 338 337 333 326 312 295 290 281 279 280 265 258 249 245 241 244 248 253
294 306 314 308 292 298 304 324 342 353 357 1 4 9 340 333 331 339 330 331 336 346 336 334 328 328 324 320 324 327 308 293 311 293 302 300 270 246 244 240 239 238 236
300 305 305 288 278 266 283 306 336 357 360 6 9 5 348 335 331 335 334 330 330 328 326 326 327 324 318 312 305 303 304 294 311 319 323 325 289 260 245 235 229 228 226
303 309 304 289 249 251 279 311 340 353 3 11 16 3 340 332 331 330 328 329 329 326 326 328 329 326 323 310 301 289 289 295 300 299 300 291 283 275 251 240 238 239 242
310 322 328 313 259 238 249 312 337 353 6 15 15 7 354 347 338 335 335 334 331 331 332 329 325 318 315 315 296 289 285 289 296 279 271 263 274 279 276 269 267 262 257
318 329 338 323 233 229 250 305 326 352 7 12 13 8 6 6 358 347 342 341 339 336 330 326 324 317 313 300 286 274 275 288 296 284 278 270 272 280 286 285 282 280 272
321 333 339 341 246 234 266 297 327 352 5 9 11 7 9 6 360 352 348 346 345 338 332 334 334 327 314 294 272 269 274 280 288 283 277 283 297 310 308 303 302 289 277
333 334 336 341 307 255 261 282 330 350 0 7 10 13 11 8 2 353 351 351 350 345 344 340 337 332 318 297 267 269 274 279 282 272 255 276 299 296 317 321 316 304 286
340 339 343 335 305 270 272 299 334 346 359 6 11 15 15 13 9 2 359 357 358 354 347 347 347 341 326 305 277 269 267 279 272 254 247 257 261 282 309 318 319 312 305
335 345 342 330 311 274 279 299 324 346 2 11 8 13 13 17 17 13 7 3 360 357 358 354 351 349 341 323 301 268 272 282 250 241 242 258 272 293 304 309 311 314 308
300 341 340 335 320 293 269 288 315 351 2 5 6 7 10 15 17 14 12 6 0 2 3 1 357 354 349 336 314 276 260 252 230 226 234 246 270 289 297 300 302 304 304
276 322 338 342 331 311 285 303 307 320 353 342 347 352 2 9 12 12 10 7 1 1 5 2 1 4 360 355 345 219 192 191 206 224 249 270 286 294 298 300 300 298 296
261 290 327 346 340 321 302 287 284 287 302 326 327 327 343 357 2 6 7 5 0 2 5 8 6 6 9 10 31 143 183 200 220 252 277 291 299 305 305 305 303 295 293
253 270 314 339 343 319 303 283 284 288 292 302 310 305 321 341 349 355 360 3 360 0 6 11 12 10 12 2 17 195 227 241 255 279 290 300 309 313 310 307 308 295 285
248 256 310 333 332 324 305 295 295 289 293 292 297 301 304 323 334 342 352 358 358 359 2 4 6 15 17 14 336 283 277 278 274 300 295 305 313 314 312 311 310 305 289
247 242 296 320 313 320 303 296 294 301 299 286 293 300 301 311 320 329 338 351 356 359 358 357 4 12 13 17 12 352 331 317 297 292 275 287 305 307 306 306 301 295 293
236 221 273 290 284 299 303 307 306 311 304 299 303 296 302 303 312 317 321 339 350 359 357 358 359 2 7 11 21 27 347 340 333 338 314 308 316 312 300 303 297 292 282
220 211 179 229 261 266 293 310 303 311 307 299 303 300 297 304 313 312 311 320 339 348 354 351 356 2 1 351 357 359 356 343 337 324 323 334 342 337 306 298 297 289 280
226 224 241 229 226 244 270 318 312 317 312 307 307 309 305 309 317 314 319 306 322 330 337 343 335 339 342 348 331 325 323 315 314 302 311 319 322 323 328 300 300 288 286
219 221 227 210 219 234 255 301 326 331 327 319 318 325 315 316 318 318 313 312 310 314 322 324 329 323 319 320 321 319 311 300 303 296 301 309 311 319 312 310 295 286 284